LAPPEENRANTA current weather conditions

sailwx.info

Wind from 180 at 6 knots

Air temperature -1.0° C
Visibility: greater than 1.3 NM
Dewpoint -2.0° C
Present weather: Light snow.

Last reported at 2020-Jan-26 06:50 UTC.
Time now 2020-Jan-26 08:05 UTC

Location: N 61°05' E 028°09'.
View on Google Maps.

See reports from other nearby stations

  
Tides and Currents Weather Stations Pressure Air Temp Water Temp Dewpoint Dewpoint Depression Visibility Wind Speed Wind Dir Waves Ship Positions
date/time (UTC)wind fromknots sea level pressurealtimeterstation pressurevisibilityair tempwater tempwave heightnotes
2020-Jan-26 06:50 180 6 1.3-1.0 Light snow.
2020-Jan-26 06:20 160 6 1.2-2.0 Snow.
2020-Jan-26 05:50 150 6 1.3-2.0 Light snow.
2020-Jan-26 05:20 160 6 1.7-3.0 Light snow.
2020-Jan-26 04:50 160 4 1.6-3.0 Light snow.
2020-Jan-26 04:20 180 4 1.9-4.0 Light snow.
2020-Jan-26 03:50 190 4 2.1-4.0 Light snow showers.
2020-Jan-26 03:20 210 5 4.3-5.0 Light snow.
2020-Jan-26 02:50 200 5 5.4-5.0
2020-Jan-26 02:20 210 5 5.4-6.0
2020-Jan-26 01:50 5.4-6.0
2020-Jan-26 01:20 5.4-6.0
2020-Jan-26 00:50 210 5 5.4-6.0
2020-Jan-26 00:20 220 5 5.4-6.0
2020-Jan-25 23:50 210 2 5.4-6.0
2020-Jan-25 23:20 230 5 5.4-6.0
2020-Jan-25 22:50 250 6 5.4-5.0
2020-Jan-25 22:20 250 7 5.4-5.0
2020-Jan-25 21:50 250 6 5.4-5.0
2020-Jan-25 21:20 260 6 5.4-5.0
2020-Jan-25 20:50 270 7 5.4-5.0
2020-Jan-25 20:20 260 7 5.4-4.0
2020-Jan-25 19:50 270 6 5.4-4.0
2020-Jan-25 19:20 280 6 5.4-4.0
2020-Jan-25 18:50 280 7 5.4-3.0
2020-Jan-25 18:20 280 7 5.4-3.0
2020-Jan-25 17:50 290 7 5.4-3.0
2020-Jan-25 17:20 290 7 5.4-3.0
2020-Jan-25 16:50 300 7 5.4-2.0
2020-Jan-25 16:20 300 8 5.4-2.0
2020-Jan-25 15:50 300 9 5.4-2.0
2020-Jan-25 15:20 300 7 5.4-2.0
2020-Jan-25 14:50 300 8 5.4-2.0
2020-Jan-25 14:20 310 9 5.4-1.0
2020-Jan-25 13:50 300 14 gusting 27 5.4-1.0
2020-Jan-25 13:20 310 13 5.4-1.0
2020-Jan-25 12:50 310 12 gusting 21 5.4-1.0
2020-Jan-25 12:20 310 13 5.4-1.0
2020-Jan-25 11:50 310 14 gusting 27 5.4-1.0
2020-Jan-25 11:20 300 13 gusting 26 5.4-1.0
2020-Jan-25 10:50 300 13 gusting 27 5.4-0.0
2020-Jan-25 10:20 300 14 gusting 29 5.4-1.0
2020-Jan-25 09:50 300 15 5.4-1.0
2020-Jan-25 09:20 300 15 gusting 29 5.4-1.0
2020-Jan-25 08:50 300 13 5.4-1.0
2020-Jan-25 08:20 300 13 gusting 26 5.4-1.0
2020-Jan-25 07:50 290 11 gusting 20 5.4-1.0
2020-Jan-25 07:20 290 12 5.4-1.0
2020-Jan-25 06:50 290 9 5.4-1.0
2020-Jan-25 06:20 290 11 0.0-1.0
2020-Jan-25 05:50 300 7 5.4-1.0
2020-Jan-25 05:20 290 9 5.4-1.0
2020-Jan-25 04:50 280 12 5.4-1.0
2020-Jan-25 04:20 280 9 5.4-1.0
2020-Jan-25 03:50 290 8 5.4-0.0
2020-Jan-25 03:20 270 11 5.4-0.0
2020-Jan-25 02:50 250 9 5.4-1.0
2020-Jan-25 02:20 260 7 5.4-1.0
2020-Jan-25 01:50 260 9 5.4-1.0
2020-Jan-25 01:20 250 8 5.4-1.0
2020-Jan-25 00:50 250 9 5.4-0.0 Light snow.
2020-Jan-25 00:20 250 7 2.7-1.0 Light snow showers.
2020-Jan-24 23:50 250 9 5.4-1.0
2020-Jan-24 23:20 240 8 5.4-1.0
2020-Jan-24 22:50 230 7 5.4-2.0
2020-Jan-24 22:20 230 6 5.4-1.0
2020-Jan-24 21:50 240 7 5.4-1.0
2020-Jan-24 21:20 240 7 5.4-1.0
2020-Jan-24 20:50 250 8 5.4-1.0
2020-Jan-24 20:20 250 9 5.4-1.0
2020-Jan-24 19:50 250 9 5.4-1.0
2020-Jan-24 19:20 250 8 5.4-1.0
2020-Jan-24 18:50 250 6 5.4-2.0
2020-Jan-24 18:20 260 8 5.4-1.0
2020-Jan-24 17:50 260 7 5.4-1.0
2020-Jan-24 17:20 250 8 5.4-0.0
2020-Jan-24 16:50 270 7 5.4-0.0
2020-Jan-24 16:20 280 7 5.4-0.0
2020-Jan-24 15:50 260 6 5.4-1.0
2020-Jan-24 15:20 250 7 5.4-1.0
2020-Jan-24 14:50 250 7 5.4-0.0
2020-Jan-24 14:20 250 6 5.4-0.0
2020-Jan-24 13:50 240 6 5.4-0.0
2020-Jan-24 13:20 230 6 5.4-0.0
2020-Jan-24 12:50 260 6 5.4-0.0
2020-Jan-24 12:20 270 6 5.4-0.0
2020-Jan-24 11:50 260 6 5.4-0.0
2020-Jan-24 11:20 270 6 5.4 1.0
2020-Jan-24 10:50 280 8 5.4 1.0
2020-Jan-24 10:20 280 8 5.4 1.0
2020-Jan-24 09:50 270 8 5.4 1.0
2020-Jan-24 09:20 260 8 5.4-0.0
2020-Jan-24 08:50 260 6 5.4-0.0
2020-Jan-24 08:20 250 6 5.4-0.0